Martinsville, VA

6:06 AM EDT on May 26, 2017 (GMT -0400)
Blue Ridge

Weather History for KMTV - March, 2013

Change the Weather History Date:

Thursday, March 7, 2013

  Actual Average (KINT) Record (KINT)
Temperature  
Mean Temperature 40 °F -  
Max Temperature 50 °F 55 °F 78 °F (2009)
Min Temperature 32 °F 36 °F 17 °F (1966)
Degree Days  
Heating Degree Days 24    
Moisture  
Dew Point 29 °F    
Average Humidity 61    
Maximum Humidity 79    
Minimum Humidity 46    
Precipitation  
Precipitation 0.00 in - - ()
Sea Level Pressure  
Sea Level Pressure 30.18 in    
Wind  
Wind Speed 10 mph (NNW)    
Max Wind Speed 18 mph    
Max Gust Speed 31 mph    
Visibility 10 miles    
Events      
Averages and records for this station are not official NWS values.
T = Trace of Precipitation, MM = Missing Value Source: NWS Daily Summary

Daily Weather History Graph

Daily Weather History Graph

Search for Another Location

Airport or City:

Trip Planner

Search our weather history database for the weather conditions in past years. The results will help you decide how hot, cold, wet, or windy it might be!

Date:

Astronomy

Mar. 07, 2013 Rise Set
Actual Time 6:42 AM EST 6:20 PM EST
Civil Twilight 6:16 AM EST 6:46 PM EST
Nautical Twilight 5:46 AM EST 7:16 PM EST
Astronomical Twilight 5:16 AM EST 7:46 PM EST
Moon 3:34 AM EST (3/7) 2:11 PM EST (3/7)
Length of Visible Light 12h 29m
Length of Day
11h 38m
Waning Crescent, 20% of the Moon is Illuminated
Mar 7
Waning Crescent
Mar 11
New
Mar 19
First Quarter
Mar 27
Full
Apr 3
Last Quarter

Hourly Weather History & Observations

Time (EST) Temp. Windchill Dew Point Humidity Pressure Visibility Wind Dir Wind Speed Gust Speed Precip Events Conditions
12:15 AM 41.9 °F 34.6 °F 30.6 °F 64% 30.09 in 10.0 mi NW 13.8 mph 17.3 mph N/A   Overcast
12:35 AM 41.5 °F 35.0 °F 30.6 °F 65% 30.09 in 10.0 mi NNW 11.5 mph 17.3 mph N/A   Overcast
12:55 AM 41.4 °F 34.7 °F 30.7 °F 66% 30.09 in 10.0 mi NNW 11.5 mph 16.1 mph N/A   Overcast
1:15 AM 41.2 °F 36.6 °F 30.9 °F 67% 30.10 in 10.0 mi NNW 6.9 mph - N/A   Overcast
1:35 AM 41.4 °F 36.8 °F 30.7 °F 66% 30.11 in 10.0 mi NW 6.9 mph - N/A   Overcast
1:55 AM 41.4 °F 37.6 °F 30.7 °F 66% 30.11 in 10.0 mi NNW 5.8 mph - N/A   Overcast
2:15 AM 41.4 °F 35.2 °F 30.7 °F 66% 30.11 in 10.0 mi NW 10.4 mph - N/A   Overcast
2:35 AM 41.2 °F 36.6 °F 31.1 °F 67% 30.11 in 10.0 mi NW 6.9 mph - N/A   Overcast
2:55 AM 41.4 °F 35.7 °F 30.9 °F 66% 30.11 in 10.0 mi NNW 9.2 mph - N/A   Overcast
3:15 AM 41.4 °F 36.2 °F 30.9 °F 66% 30.10 in 10.0 mi North 8.1 mph - N/A   Overcast
3:35 AM 41.0 °F 35.2 °F 31.1 °F 68% 30.10 in 10.0 mi NNW 9.2 mph - N/A   Overcast
3:55 AM 40.5 °F 33.2 °F 31.1 °F 69% 30.09 in 10.0 mi NW 12.7 mph - N/A   Overcast
4:15 AM 40.3 °F 33.9 °F 31.1 °F 70% 30.09 in 10.0 mi NNW 10.4 mph 20.7 mph N/A   Scattered Clouds
4:35 AM 40.5 °F 33.2 °F 30.7 °F 68% 30.09 in 10.0 mi NW 12.7 mph - N/A   Clear
4:55 AM 40.8 °F 35.6 °F 30.6 °F 67% 30.10 in 10.0 mi NNW 8.1 mph 20.7 mph N/A   Mostly Cloudy
5:15 AM 41.0 °F 37.1 °F 30.2 °F 65% 30.11 in 10.0 mi NNW 5.8 mph - N/A   Overcast
5:35 AM 41.0 °F 34.7 °F 30.2 °F 65% 30.13 in 10.0 mi NNW 10.4 mph - N/A   Overcast
5:55 AM 40.1 °F 34.7 °F 30.0 °F 67% 30.13 in 10.0 mi NNW 8.1 mph - N/A   Mostly Cloudy
6:15 AM 39.2 °F 33.6 °F 30.2 °F 70% 30.14 in 10.0 mi NNW 8.1 mph - N/A   Scattered Clouds
6:35 AM 37.8 °F 33.3 °F 30.2 °F 74% 30.15 in 10.0 mi NNW 5.8 mph - N/A   Clear
6:55 AM 37.8 °F 33.3 °F 30.0 °F 74% 30.16 in 10.0 mi North 5.8 mph - N/A   Clear
7:15 AM 38.5 °F 33.4 °F 30.0 °F 72% 30.17 in 10.0 mi NNW 6.9 mph - N/A   Clear
7:35 AM 40.5 °F - 30.2 °F 67% 30.19 in 10.0 mi Calm Calm - N/A   Mostly Cloudy
7:55 AM 42.3 °F - 29.8 °F 61% 30.19 in 10.0 mi Calm Calm - N/A   Overcast
8:15 AM 42.8 °F 40.1 °F 29.7 °F 60% 30.20 in 10.0 mi NW 4.6 mph - N/A   Mostly Cloudy
8:35 AM 43.0 °F 38.2 °F 30.2 °F 61% 30.20 in 10.0 mi North 8.1 mph - N/A   Overcast
8:55 AM 43.7 °F 36.9 °F 30.0 °F 59% 30.20 in 10.0 mi NW 13.8 mph 18.4 mph N/A   Overcast
9:15 AM 44.6 °F 36.9 °F 30.2 °F 57% 30.21 in 10.0 mi NNW 18.4 mph 25.3 mph N/A   Overcast
9:35 AM 44.2 °F 38.4 °F 30.2 °F 58% 30.21 in 10.0 mi NNW 11.5 mph 18.4 mph N/A   Overcast
9:55 AM 45.5 °F 38.6 °F 30.4 °F 56% 30.21 in 10.0 mi NNW 16.1 mph 20.7 mph N/A   Overcast
10:15 AM 45.5 °F 38.1 °F 30.4 °F 56% 30.21 in 10.0 mi NNW 18.4 mph 24.2 mph N/A   Mostly Cloudy
10:35 AM 45.9 °F 40.4 °F 29.8 °F 54% 30.21 in 10.0 mi NNW 11.5 mph 18.4 mph N/A   Mostly Cloudy
10:55 AM 46.2 °F 39.0 °F 29.8 °F 53% 30.21 in 10.0 mi NNW 18.4 mph 26.5 mph N/A   Mostly Cloudy
11:15 AM 46.4 °F 39.8 °F 29.7 °F 52% 30.21 in 10.0 mi NNW 16.1 mph 23.0 mph N/A   Mostly Cloudy
11:35 AM 48.0 °F - 30.2 °F 50% 30.21 in 10.0 mi North 13.8 mph 21.9 mph N/A   Mostly Cloudy
11:55 AM 48.0 °F - 30.7 °F 51% 30.20 in 10.0 mi NNW 15.0 mph 19.6 mph N/A   Mostly Cloudy
12:15 PM 48.6 °F - 30.9 °F 51% 30.20 in 10.0 mi North 16.1 mph 26.5 mph N/A   Scattered Clouds
12:35 PM 49.3 °F - 31.1 °F 50% 30.20 in 10.0 mi NW 15.0 mph 27.6 mph N/A   Scattered Clouds
12:55 PM 48.4 °F - 29.8 °F 49% 30.19 in 10.0 mi North 11.5 mph 19.6 mph N/A   Scattered Clouds
1:15 PM 49.8 °F - 29.8 °F 46% 30.18 in 10.0 mi North 12.7 mph 24.2 mph N/A   Clear
1:35 PM 49.5 °F - 30.2 °F 48% 30.18 in 10.0 mi North 15.0 mph 20.7 mph N/A   Clear
1:55 PM 49.5 °F - 30.2 °F 48% 30.18 in 10.0 mi North 12.7 mph 26.5 mph N/A   Scattered Clouds
2:15 PM 49.6 °F - 30.0 °F 47% 30.17 in 10.0 mi North 11.5 mph 23.0 mph N/A   Scattered Clouds
2:35 PM 49.1 °F - 30.2 °F 48% 30.18 in 10.0 mi NNW 18.4 mph 25.3 mph N/A   Scattered Clouds
2:55 PM 48.0 °F - 29.7 °F 49% 30.18 in 10.0 mi NNW 16.1 mph 20.7 mph N/A   Scattered Clouds
3:15 PM 48.6 °F - 29.1 °F 47% 30.19 in 10.0 mi North 13.8 mph 31.1 mph N/A   Scattered Clouds
3:35 PM 48.4 °F - 28.4 °F 46% 30.19 in 10.0 mi NNW 15.0 mph 21.9 mph N/A   Scattered Clouds
3:55 PM 47.5 °F - 28.9 °F 49% 30.20 in 10.0 mi NW 18.4 mph 24.2 mph N/A   Clear
4:15 PM 46.6 °F - 28.6 °F 50% 30.20 in 10.0 mi NNW 15.0 mph 26.5 mph N/A   Clear
4:35 PM 47.1 °F - 28.4 °F 48% 30.20 in 10.0 mi NNW 13.8 mph 24.2 mph N/A   Clear
4:55 PM 46.4 °F 39.2 °F 27.9 °F 48% 30.21 in 10.0 mi NNW 18.4 mph 23.0 mph N/A   Clear
5:15 PM 45.7 °F 38.6 °F 27.9 °F 50% 30.21 in 10.0 mi NNW 17.3 mph 23.0 mph N/A   Scattered Clouds
5:35 PM 44.4 °F 38.2 °F 27.9 °F 52% 30.22 in 10.0 mi NNW 12.7 mph 20.7 mph N/A   Clear
5:55 PM 43.9 °F 38.3 °F 27.3 °F 52% 30.22 in 10.0 mi NNW 10.4 mph - N/A   Clear
6:15 PM 42.6 °F 36.3 °F 27.3 °F 55% 30.23 in 10.0 mi NNW 11.5 mph - N/A   Clear
6:35 PM 41.7 °F 35.6 °F 27.0 °F 56% 30.24 in 10.0 mi NNW 10.4 mph - N/A   Clear
6:55 PM 42.3 °F 34.8 °F 25.9 °F 52% 30.25 in 10.0 mi NNW 15.0 mph - N/A   Clear
8:35 PM 36.9 °F - 26.4 °F 66% 30.27 in 10.0 mi Calm Calm - N/A   Clear
8:55 PM 35.2 °F - 26.8 °F 71% 30.27 in 10.0 mi Calm Calm - N/A   Scattered Clouds
9:15 PM 34.3 °F - 27.0 °F 74% 30.27 in 10.0 mi Calm Calm - N/A   Scattered Clouds
9:35 PM 33.3 °F - 27.1 °F 78% 30.27 in 10.0 mi Calm Calm - N/A   Scattered Clouds
9:55 PM 32.9 °F - 26.8 °F 78% 30.27 in 10.0 mi Calm Calm - N/A   Clear
10:15 PM 32.5 °F - 26.8 °F 79% 30.28 in 10.0 mi Calm Calm - N/A   Scattered Clouds
10:35 PM 33.1 °F - 27.3 °F 79% 30.27 in 10.0 mi Calm Calm - N/A   Mostly Cloudy
10:55 PM 35.1 °F 32.2 °F 27.7 °F 74% 30.27 in 10.0 mi WNW 3.5 mph - N/A   Mostly Cloudy
11:15 PM 36.3 °F - 28.4 °F 73% 30.27 in 10.0 mi Calm Calm - N/A   Overcast
11:35 PM 36.7 °F - 29.1 °F 74% 30.28 in 10.0 mi Calm Calm - N/A   Overcast
11:55 PM 38.3 °F 35.9 °F 28.2 °F 67% 30.27 in 10.0 mi West 3.5 mph - N/A   Overcast